Weather History for KCQX - October, 2013

Change the Weather History Date:

Wednesday, October 16, 2013

  Actual Average Record
Temperature  
Mean Temperature 57 °F -  
Max Temperature 61 °F 58 °F 73 °F (1975)
Min Temperature 54 °F 44 °F 35 °F (1978)
Degree Days  
Heating Degree Days 8    
Growing Degree Days 7 (Base 50)    
Moisture  
Dew Point 55 °F    
Average Humidity 91    
Maximum Humidity 100    
Minimum Humidity 82    
Precipitation  
Precipitation 0.02 in - - ()
Sea Level Pressure  
Sea Level Pressure 30.04 in    
Wind  
Wind Speed 7 mph (NE)    
Max Wind Speed 12 mph    
Max Gust Speed -    
Visibility 6 miles    
Events Rain    
Averages and records for this station are not official NWS values.
T = Trace of Precipitation, MM = Missing Value Source: NWS Daily Summary

Daily Weather History Graph

Daily Weather History Graph

Search for Another Location

Airport or City:

Trip Planner

Search our weather history database for the weather conditions in past years. The results will help you decide how hot, cold, wet, or windy it might be!

Date:

Astronomy

Oct. 16, 2013 Rise Set
Actual Time 6:53 AM EDT 5:56 PM EDT
Civil Twilight 6:25 AM EDT 6:24 PM EDT
Nautical Twilight 5:53 AM EDT 6:57 PM EDT
Astronomical Twilight 5:20 AM EDT 7:29 PM EDT
Moon 4:35 PM EDT (10/16) 4:15 AM EDT (10/16)
Length of Visible Light 11h 59m
Length of Day
11h 03m
Waxing Gibbous, 94% of the Moon is Illuminated
Oct 16
Waxing Gibbous
Oct 18
Full
Oct 26
Last Quarter
Nov 3
New
Nov 10
First Quarter

Hourly Weather History & Observations

Time (EDT) Temp. Dew Point Humidity Pressure Visibility Wind Dir Wind Speed Gust Speed Precip Events Conditions
12:52 AM 54.0 °F 50.0 °F 86% 30.17 in 10.0 mi ENE 6.9 mph - N/A   Clear
1:52 AM 55.9 °F 51.1 °F 84% 30.16 in 10.0 mi NE 5.8 mph - N/A   Scattered Clouds
2:09 AM 55.4 °F 51.8 °F 88% 30.16 in 10.0 mi NE 5.8 mph - N/A   Mostly Cloudy
2:52 AM 57.0 °F 52.0 °F 83% 30.15 in 10.0 mi NE 6.9 mph - N/A   Overcast
3:52 AM 57.0 °F 52.0 °F 83% 30.14 in 10.0 mi NE 8.1 mph - N/A   Overcast
4:45 AM 57.2 °F 51.8 °F 82% 30.11 in 10.0 mi ENE 9.2 mph - N/A   Overcast
4:52 AM 57.0 °F 52.0 °F 83% 30.12 in 10.0 mi ENE 10.4 mph - N/A   Overcast
5:17 AM 55.4 °F 53.6 °F 94% 30.10 in 10.0 mi ENE 10.4 mph - N/A   Mostly Cloudy
5:29 AM 55.4 °F 53.6 °F 94% 30.10 in 10.0 mi NE 10.4 mph - N/A   Mostly Cloudy
5:52 AM 55.9 °F 54.0 °F 93% 30.11 in 10.0 mi NE 9.2 mph - N/A   Overcast
6:52 AM 57.0 °F 54.0 °F 89% 30.10 in 10.0 mi NE 9.2 mph - N/A   Overcast
7:52 AM 57.9 °F 55.0 °F 90% 30.11 in 10.0 mi NE 5.8 mph - N/A   Overcast
8:13 AM 57.2 °F 55.4 °F 94% 30.11 in 1.8 mi NNE 8.1 mph - N/A   Overcast
8:52 AM 57.9 °F 55.9 °F 93% 30.09 in 1.0 mi NE 10.4 mph - 0.02 in   Overcast
9:00 AM 57.2 °F 57.2 °F 100% 30.09 in 3.0 mi NE 10.4 mph - N/A   Overcast
9:11 AM 57.2 °F 57.2 °F 100% 30.08 in 1.8 mi NE 11.5 mph - N/A   Overcast
9:52 AM 57.9 °F 57.0 °F 97% 30.08 in 1.8 mi NNE 8.1 mph - N/A   Overcast
10:01 AM 57.2 °F 57.2 °F 100% 30.07 in 2.5 mi NNE 6.9 mph - N/A   Overcast
10:10 AM 59.0 °F 57.2 °F 94% 30.06 in 4.0 mi NNE 8.1 mph - N/A   Overcast
10:52 AM 59.0 °F 57.0 °F 93% 30.05 in 4.0 mi NE 9.2 mph - N/A   Overcast
11:37 AM 59.0 °F 57.2 °F 94% 30.04 in 1.8 mi NNE 6.9 mph - 0.00 in Rain Light Rain
11:52 AM 60.1 °F 57.9 °F 93% 30.04 in 1.8 mi Variable 5.8 mph - 0.00 in Rain Light Rain
12:02 PM 60.8 °F 57.2 °F 88% 30.03 in 2.5 mi Variable 5.8 mph - 0.00 in   Overcast
12:11 PM 60.8 °F 57.2 °F 88% 30.02 in 4.0 mi NE 5.8 mph - 0.00 in   Overcast
12:52 PM 60.1 °F 57.9 °F 93% 30.02 in 10.0 mi NNE 5.8 mph - 0.00 in   Overcast
1:18 PM 60.8 °F 57.2 °F 88% 30.00 in 1.8 mi NNE 6.9 mph - N/A   Overcast
1:42 PM 60.8 °F 57.2 °F 88% 29.99 in 1.5 mi NNE 4.6 mph - N/A   Overcast
1:52 PM 60.1 °F 57.9 °F 93% 30.00 in 3.0 mi Variable 5.8 mph - N/A   Overcast
2:52 PM 60.1 °F 57.0 °F 90% 29.98 in 10.0 mi North 5.8 mph - N/A   Overcast
3:52 PM 60.1 °F 57.0 °F 90% 29.99 in 10.0 mi Variable 5.8 mph - N/A   Overcast
4:40 PM 60.8 °F 57.2 °F 88% 29.97 in 10.0 mi Variable 3.5 mph - N/A   Overcast
4:52 PM 59.0 °F 57.0 °F 93% 29.98 in 10.0 mi Variable 4.6 mph - N/A   Overcast
5:52 PM 59.0 °F 55.9 °F 90% 29.97 in 10.0 mi Variable 4.6 mph - N/A   Overcast
6:20 PM 57.2 °F 55.4 °F 94% 29.97 in 10.0 mi NNW 4.6 mph - N/A   Overcast
6:52 PM 57.9 °F 55.9 °F 93% 29.97 in 10.0 mi Calm Calm - N/A   Overcast
7:52 PM 57.9 °F 55.0 °F 90% 29.97 in 10.0 mi NNE 6.9 mph - N/A   Overcast
8:52 PM 57.0 °F 55.0 °F 93% 29.96 in 8.0 mi NNE 3.5 mph - N/A   Overcast
9:52 PM 57.0 °F 55.0 °F 93% 29.96 in 6.0 mi Calm Calm - N/A   Overcast
10:52 PM 57.0 °F 55.0 °F 93% 29.94 in 2.5 mi Calm Calm - N/A   Overcast
11:05 PM 57.2 °F 55.4 °F 94% 29.93 in 4.0 mi Calm Calm - N/A   Overcast
11:24 PM 57.2 °F 55.4 °F 94% 29.93 in 2.0 mi Calm Calm - N/A   Overcast
11:52 PM 57.0 °F 55.0 °F 93% 29.92 in 2.0 mi Calm Calm - N/A   Overcast